Tracking 30743 objects as of 22-Jun-2025
HD Live streaming from Space Station
objects crossing your sky now

STARLINK-11317

Track STARLINK-11317 now!
10-day predictions
STARLINK-11317 is classified as:


NORAD ID: 61248
Int'l Code: 2024-175F
Perigee: 366.1 km
Apogee: 367.6 km
Inclination: 53.2 °
Period: 91.7 minutes
Semi major axis: 6737 km
RCS: Unknown
Launch date: September 25, 2024
Source: United States (US)
Launch site: AIR FORCE WESTERN TEST RANGE (AFWTR)
Your satellite tracking list
Your tracking list is empty




NASA's NSSDC Master Catalog

Two Line Element Set (TLE):
1 61248U 24175F   25172.54125770  .00000556  00000-0  94474-5 0  9997
2 61248  53.1604 263.3791 0001095 102.7929 257.3211 15.69703957 42355
Source of the keplerian elements: AFSPC